User: anonymous   Login
Location: Digermulen
(68.3170°N, 15.0000°E)
Time: 22:26:09
(UTC+01:00)
Language:

ISS - Orbit

View from above orbital plane
View from above orbital plane
View from above satellite
View from above satellite

Ground track
Ground track

The orbit data is extracted from the following two-line orbital elements,

1 25544U 98067A   19326.52570907  .00016717  00000-0  10270-3 0  9025
2 25544  51.6400 296.2635 0006641 312.1084  47.9501 15.50025519 39817
Epoch (UTC): 22 November 2019 12:37:01
Eccentricity: 0.0006641
inclination: 51.6400°
perigee height: 412 km
apogee height: 421 km
right ascension of ascending node: 296.2635°
argument of perigee: 312.1084°
revolutions per day: 15.50025519
mean anomaly at epoch: 47.9501°
orbit number at epoch: 3981

The dashed part of the orbit path shows where the satellite is in the earth's shadow,  

DLR